Zurück zum Katalog

STARLINK-34324

AktivKommunikationVLEO
NORAD 64207·PAYLOAD·🇺🇸 United States

Gestartet May 31, 2025 von Vandenberg Space Force Base

Loading…

Nächste Überflüge (nächste 24 Stunden)

TLE

AktuellSource: CelesTrak SupGP

Epoche: Sep 14, 2026, 13:58 UTC

1 64207C 25117E   26257.58243056 -.00030000  00000+0 -88661-3 0  2573
2 64207  53.1579 241.2195 0001449  89.3793 143.0329 15.34396454    19

Verfolge STARLINK-34324 in Echtzeit mit AllMySat

Download on the App Store